Location: *
(45.4590°N, 16.3650°E)
Time: 16:34:00
(UTC+00:00)

H-2A R/B - Pass Details

Date: 17 January 2020
Orbit: 734 x 836 km, 98.2° (Epoch: 19 February)

Event Time Altitude Azimuth Distance (km) Brightness Sun altitude
Exits shadow 18:09:02 16° 2° (N) 1,911 4.0 -25.8°
Drops below altitude 10° 18:10:03 10° 358° (N) 2,295 4.4 -25.9°
Sets 18:12:28 0° 352° (N) 3,239 5.3 -26.4°
